This is the latest recevied weather packets stored in our database for station/object W7MB. If no packets are shown the sender has not sent any weather packets the latest 1 day(s).
| Time | Temp. | Humidity | Pressure | Rain* | Wind** | Luminosity | Snow |
|---|---|---|---|---|---|---|---|
| 1778037483 | 20° C | 53% | 1011.3 hPa | 0 mm | 0.45 m/s, 182° | - | - |
| 1778037123 | 20° C | 52% | 1011.2 hPa | 0 mm | 0.45 m/s, 170° | - | - |
| 1778036763 | 20.56° C | 51% | 1011.1 hPa | 0 mm | 0.89 m/s, 148° | - | - |
| 1778036404 | 20.56° C | 51% | 1011.1 hPa | 0 mm | 1.34 m/s, 159° | - | - |
| 1778036043 | 21.11° C | 50% | 1011 hPa | 0 mm | 1.79 m/s, 170° | - | - |
| 1778035683 | 21.11° C | 49% | 1010.9 hPa | 0 mm | 1.79 m/s, 169° | - | - |
| 1778035323 | 21.67° C | 48% | 1010.8 hPa | 0 mm | 1.34 m/s, 173° | - | - |
| 1778034963 | 22.22° C | 47% | 1010.7 hPa | 0 mm | 1.34 m/s, 179° | - | - |
| 1778034603 | 22.22° C | 46% | 1010.7 hPa | 0 mm | 0.89 m/s, 177° | - | - |
| 1778034243 | 22.78° C | 46% | 1010.6 hPa | 0 mm | 0.89 m/s, 179° | - | - |
| 1778033883 | 23.33° C | 44% | 1010.6 hPa | 0 mm | 1.34 m/s, 174° | - | - |
| 1778033523 | 23.33° C | 43% | 1010.6 hPa | 0 mm | 1.79 m/s, 176° | - | - |
| 1778033163 | 24.44° C | 42% | 1010.5 hPa | 0 mm | 1.34 m/s, 180° | - | - |
| 1778032803 | 25° C | 41% | 1010.4 hPa | 0 mm | 0.89 m/s, 178° | - | - |
| 1778032443 | 25.56° C | 39% | 1010.4 hPa | 0 mm | 0.89 m/s, 186° | - | - |
| 1778032083 | 25.56° C | 39% | 1010.4 hPa | 0 mm | 1.79 m/s, 190° | - | - |
| 1778031723 | 25.56° C | 37% | 1010.4 hPa | 0 mm | 1.79 m/s, 196° | - | - |
| 1778031363 | 26.11° C | 38% | 1010.3 hPa | 0 mm | 1.79 m/s, 195° | - | - |
| 1778031004 | 26.11° C | 36% | 1010.3 hPa | 0 mm | 1.79 m/s, 187° | - | - |
| 1778030643 | 26.67° C | 36% | 1010.2 hPa | 0 mm | 1.79 m/s, 175° | - | - |
| 1778030283 | 27.22° C | 33% | 1010.2 hPa | 0 mm | 0.89 m/s, 182° | - | - |
| 1778029923 | 27.22° C | 34% | 1010.2 hPa | 0 mm | 1.34 m/s, 198° | - | - |
| 1778029563 | 27.22° C | 33% | 1010.2 hPa | 0 mm | 1.79 m/s, 194° | - | - |
| 1778029204 | 27.78° C | 33% | 1010.2 hPa | 0 mm | 1.79 m/s, 183° | - | - |
| 1778028843 | 27.78° C | 32% | 1010.1 hPa | 0 mm | 1.34 m/s, 193° | - | - |
* Rain latest hour (hover to see other rain measurements)
** Current wind speed in m/s (hover to see current wind gust speed)